START_TIME,STEP,MOV.,M15,t_acc.,M20,t_acc.
1979-07-04 21:00:44.680 ,0,0,0.,24.0,0.,24.0
1979-07-04 21:01:08.680 ,0,1,0.,24.0,0.,24.0
1979-07-04 21:01:32.680 ,0,0,0.,24.0,0.,24.0
1979-07-04 21:01:56.680 ,1,1,0.,24.0,0.,24.0
1979-07-04 21:02:20.680 ,1,0,0.,24.0,0.,24.0
1979-07-04 21:02:44.680 ,2,1,0.,24.0,0.,24.0
1979-07-04 21:03:08.680 ,2,0,0.,24.0,0.,24.0
1979-07-04 21:03:32.680 ,3,1,0.,24.0,0.,24.0
1979-07-04 21:03:56.680 ,3,0,0.,24.0,0.,24.0
1979-07-04 21:04:20.680 ,4,1,0.,24.0,0.,24.0
1979-07-04 21:04:44.680 ,4,0,0.,24.0,0.,24.0
1979-07-04 21:05:08.680 ,5,1,0.,24.0,0.,24.0
1979-07-04 21:05:32.680 ,5,0,0.,24.0,0.,24.0
1979-07-04 21:05:56.680 ,6,1,0.,24.0,0.,24.0
1979-07-04 21:06:20.680 ,6,0,0.,24.0,0.,24.0
1979-07-04 21:06:44.680 ,7,0,0.,24.0,0.,24.0
1979-07-04 21:07:08.680 ,7,0,0.,24.0,0.,24.0
1979-07-04 21:07:32.680 ,3,1,0.,24.0,0.,24.0
1979-07-04 21:07:56.680 ,0,1,0.,24.0,0.,24.0
1979-07-04 21:08:20.680 ,4,1,0.,24.0,0.,24.0
1979-07-04 21:08:44.680 ,0,0,0.,24.0,0.,24.0
1979-07-04 21:09:15.280 ,0,0,0.,24.0,0.,24.0
1979-07-04 21:09:32.680 ,0,1,0.,24.0,0.,24.0
1979-07-04 21:09:56.680 ,4,1,0.,24.0,0.,24.0
1979-07-04 21:10:20.680 ,7,1,0.,24.0,0.,24.0
1979-07-04 21:10:44.680 ,3,1,0.,24.0,0.,24.0
1979-07-04 21:11:08.680 ,0,1,0.,24.0,0.,24.0
1979-07-04 21:11:32.680 ,4,1,0.,24.0,0.,24.0
1979-07-04 21:11:56.680 ,7,1,0.,24.0,0.,24.0
1979-07-04 21:12:20.680 ,3,1,0.,24.0,0.,24.0
1979-07-04 21:12:44.680 ,0,1,0.,24.0,0.,24.0
1979-07-04 21:13:08.680 ,4,1,0.,24.0,0.,24.0
1979-07-04 21:13:32.680 ,0,0,0.,24.0,0.,24.0
1979-07-04 21:14:07.480 ,0,0,0.,24.0,0.,24.0
1979-07-04 23:09:08.670 ,0,0,0.,24.0,0.,24.0
1979-07-04 23:09:32.670 ,0,0,0.,24.0,0.,24.0
1979-07-04 23:09:56.670 ,2,1,0.,24.0,0.,24.0
1979-07-04 23:10:20.670 ,2,0,0.,24.0,0.,24.0
1979-07-04 23:10:44.670 ,1,1,0.,24.0,0.,24.0
1979-07-04 23:11:08.670 ,1,0,0.,24.0,0.,24.0
1979-07-04 23:11:32.670 ,0,1,0.,24.0,0.,24.0
1979-07-04 23:11:56.670 ,0,0,0.,24.0,0.,24.0
1979-07-04 23:12:20.670 ,0,1,0.,24.0,0.,24.0
1979-07-04 23:12:44.670 ,0,0,0.,24.0,0.,24.0
1979-07-04 23:13:08.670 ,1,1,0.,24.0,0.,24.0
1979-07-04 23:13:32.670 ,1,0,0.,24.0,0.,24.0
1979-07-04 23:13:56.670 ,2,1,0.,24.0,0.,24.0
1979-07-04 23:14:20.670 ,2,0,0.,24.0,0.,24.0
1979-07-04 23:14:44.670 ,3,1,0.,24.0,0.,24.0
1979-07-04 23:15:08.670 ,3,0,0.,24.0,0.,24.0
1979-07-04 23:15:32.670 ,4,1,0.,24.0,0.,24.0
1979-07-04 23:15:56.670 ,4,0,0.,24.0,0.,24.0
1979-07-04 23:16:20.670 ,5,1,0.,24.0,0.,24.0
1979-07-04 23:16:44.670 ,5,0,0.,24.0,0.,24.0
1979-07-04 23:17:08.670 ,6,1,0.,24.0,0.,24.0
1979-07-04 23:17:32.670 ,6,0,0.,24.0,0.,24.0
1979-07-04 23:17:56.670 ,7,1,0.,24.0,0.,24.0
1979-07-04 23:18:20.670 ,7,0,0.,24.0,0.,24.0
1979-07-04 23:18:44.670 ,7,1,0.,24.0,0.,24.0
1979-07-04 23:19:08.670 ,7,0,0.,24.0,0.,24.0
1979-07-04 23:19:32.670 ,6,1,0.,24.0,0.,24.0
1979-07-04 23:19:56.670 ,6,0,0.,24.0,0.,24.0
1979-07-04 23:20:20.670 ,5,1,0.,24.0,0.,24.0
1979-07-04 23:20:44.670 ,5,0,0.,24.0,0.,24.0
1979-07-04 23:21:08.670 ,4,1,0.,24.0,0.,24.0
1979-07-04 23:21:32.670 ,4,0,0.,24.0,0.,24.0
1979-07-04 23:21:56.670 ,3,1,0.,24.0,0.,24.0
1979-07-04 23:22:20.670 ,3,0,0.,24.0,0.,24.0
1979-07-04 23:22:44.670 ,2,1,0.,24.0,0.,24.0
1979-07-04 23:23:08.670 ,2,0,0.,24.0,0.,24.0
1979-07-04 23:23:32.670 ,1,1,0.,24.0,0.,24.0
1979-07-04 23:23:56.670 ,1,0,0.,24.0,0.,24.0
1979-07-04 23:24:20.670 ,0,1,0.,24.0,0.,24.0
1979-07-04 23:24:44.670 ,0,0,0.,24.0,0.,24.0
1979-07-04 23:25:08.670 ,0,1,0.,24.0,0.,24.0
1979-07-04 23:25:32.670 ,0,0,0.,24.0,0.,24.0
1979-07-04 23:25:56.670 ,1,1,0.,24.0,0.,24.0
1979-07-04 23:26:20.670 ,1,0,0.,24.0,0.,24.0
1979-07-04 23:26:44.670 ,2,1,0.,24.0,0.,24.0
1979-07-04 23:27:08.670 ,2,0,0.,24.0,0.,24.0
1979-07-04 23:27:32.670 ,3,1,0.,24.0,0.,24.0
1979-07-04 23:27:56.670 ,3,0,0.,24.0,0.,24.0
1979-07-04 23:28:20.670 ,4,1,0.,24.0,0.,24.0
1979-07-04 23:28:44.670 ,4,0,0.,24.0,0.,24.0
1979-07-04 23:29:08.670 ,5,1,0.,24.0,0.,24.0
1979-07-04 23:29:32.670 ,5,0,0.,24.0,0.,24.0
1979-07-04 23:29:56.670 ,6,1,0.,24.0,0.,24.0
1979-07-04 23:30:20.670 ,6,0,0.,24.0,0.,24.0
1979-07-04 23:30:44.670 ,7,0,0.,24.0,0.,24.0
1979-07-04 23:31:08.670 ,7,0,0.,24.0,0.,24.0
1979-07-04 23:31:32.670 ,3,1,0.,24.0,0.,24.0
1979-07-04 23:31:56.670 ,0,1,0.,24.0,0.,24.0
1979-07-04 23:32:20.670 ,4,1,0.,24.0,0.,24.0
1979-07-04 23:32:44.670 ,7,1,0.,24.0,0.,24.0
1979-07-04 23:33:08.670 ,3,1,0.,24.0,0.,24.0
1979-07-04 23:33:32.670 ,0,1,0.,24.0,0.,24.0
1979-07-04 23:33:56.670 ,4,1,0.,24.0,0.,24.0
1979-07-04 23:34:20.670 ,7,1,0.,24.0,0.,24.0
1979-07-04 23:34:44.670 ,3,1,0.,24.0,0.,24.0
1979-07-04 23:35:08.670 ,0,1,0.,24.0,0.,24.0
1979-07-04 23:35:32.670 ,4,1,0.,24.0,0.,24.0
1979-07-04 23:35:56.670 ,7,1,0.,24.0,0.,24.0
1979-07-04 23:36:20.670 ,3,1,0.,24.0,0.,24.0
1979-07-04 23:36:44.670 ,0,1,0.,24.0,0.,24.0
1979-07-04 23:37:08.670 ,4,1,0.,24.0,0.,24.0
1979-07-04 23:37:32.670 ,7,1,0.,24.0,0.,24.0
1979-07-04 23:37:56.670 ,3,1,0.,24.0,0.,24.0
1979-07-04 23:38:20.670 ,0,1,0.,24.0,0.,24.0
1979-07-04 23:38:44.670 ,4,1,0.,24.0,0.,24.0
1979-07-04 23:39:08.670 ,7,1,0.,24.0,0.,24.0
1979-07-04 23:39:32.670 ,3,1,0.,24.0,0.,24.0
1979-07-04 23:39:56.670 ,0,1,0.,24.0,0.,24.0
1979-07-04 23:40:20.670 ,4,1,0.,24.0,0.,24.0
1979-07-04 23:40:44.670 ,7,1,0.,24.0,0.,24.0
1979-07-04 23:41:08.670 ,3,1,0.,24.0,0.,24.0
1979-07-04 23:41:32.670 ,0,1,0.,24.0,0.,24.0
1979-07-04 23:41:56.670 ,0,0,0.,24.0,0.,24.0
1979-07-04 23:42:20.670 ,0,0,0.,24.0,0.,24.0
1979-07-04 23:42:44.670 ,5,1,0.,24.0,0.,24.0
1979-07-04 23:43:08.670 ,5,0,0.,24.0,0.,24.0
1979-07-04 23:43:32.670 ,4,1,0.,24.0,0.,24.0
1979-07-04 23:43:56.670 ,4,0,0.,24.0,0.,24.0
1979-07-04 23:44:20.670 ,3,1,0.,24.0,0.,24.0
1979-07-04 23:44:44.670 ,3,0,0.,24.0,0.,24.0
1979-07-04 23:45:08.670 ,2,1,0.,24.0,0.,24.0
1979-07-04 23:45:32.670 ,2,0,0.,24.0,0.,24.0
1979-07-04 23:45:56.670 ,1,1,0.,24.0,0.,24.0
1979-07-04 23:46:20.670 ,1,0,0.,24.0,0.,24.0
1979-07-04 23:46:44.670 ,0,1,0.,24.0,0.,24.0
1979-07-04 23:47:08.670 ,0,0,0.,24.0,0.,24.0
1979-07-04 23:47:32.670 ,0,1,0.,24.0,0.,24.0
1979-07-04 23:47:56.670 ,0,0,0.,24.0,0.,24.0
1979-07-04 23:48:20.670 ,1,1,0.,24.0,0.,24.0
1979-07-04 23:48:44.670 ,1,0,0.,24.0,0.,24.0
1979-07-04 23:49:08.670 ,2,1,0.,24.0,0.,24.0
1979-07-04 23:49:32.670 ,2,0,0.,24.0,0.,24.0
1979-07-04 23:49:56.670 ,3,1,0.,24.0,0.,24.0
1979-07-04 23:50:20.670 ,3,0,0.,24.0,0.,24.0
1979-07-04 23:50:44.670 ,4,1,0.,24.0,0.,24.0
1979-07-04 23:51:08.670 ,4,0,0.,24.0,0.,24.0
1979-07-04 23:51:32.670 ,5,1,0.,24.0,0.,24.0
1979-07-04 23:51:56.670 ,5,0,0.,24.0,0.,24.0
1979-07-04 23:52:20.670 ,6,1,0.,24.0,0.,24.0
1979-07-04 23:52:44.670 ,6,0,0.,24.0,0.,24.0
1979-07-04 23:53:08.670 ,7,1,1.,24.0,0.,24.0
1979-07-04 23:53:32.670 ,7,0,0.,24.0,0.,24.0
1979-07-04 23:53:56.670 ,7,1,0.,24.0,0.,24.0
1979-07-04 23:54:20.670 ,7,0,0.,24.0,0.,24.0
1979-07-04 23:54:44.670 ,6,1,0.,24.0,0.,24.0
1979-07-04 23:55:08.670 ,6,0,0.,24.0,0.,24.0
1979-07-04 23:55:32.670 ,5,1,0.,24.0,0.,24.0
1979-07-04 23:55:56.670 ,5,0,0.,24.0,0.,24.0
1979-07-04 23:56:20.670 ,4,1,0.,24.0,0.,24.0
1979-07-04 23:56:44.670 ,4,0,0.,24.0,0.,24.0
1979-07-04 23:57:08.670 ,3,1,0.,24.0,0.,24.0
1979-07-04 23:57:32.670 ,3,0,0.,24.0,0.,24.0
1979-07-04 23:57:56.670 ,2,1,0.,24.0,0.,24.0
1979-07-04 23:58:20.670 ,2,0,0.,24.0,0.,24.0
1979-07-04 23:58:44.670 ,1,1,0.,24.0,0.,24.0
1979-07-04 23:59:08.670 ,1,0,0.,24.0,0.,24.0
1979-07-04 23:59:32.670 ,0,1,0.,24.0,0.,24.0
1979-07-04 23:59:56.670 ,0,0,0.,24.0,0.,24.0
1979-07-05 00:00:20.670 ,0,1,0.,24.0,0.,24.0
